Главная страница
METAR-TAF:

METAR-TAF

Аэропорты :

South Jersey Regional Airport

Mount Holly, Нью-Джерси, США

широта: 39-56-26N, долгота: 074-50-28W, высота над уровнем моря: 16 м

Текущие метеонаблюдения

Эта сводка был подготовлена 29 минут назад, в 21:54 UTC
Ветер 3 Узел от восточный
Температура 7°C
Влажность 66%
Давление 1025 hPa
Видимость: 16.1 км
небольшая облачность на высоте 5000 фута

METAR: KVAY 182154Z AUTO 10003KT 10SM FEW050 07/01 A3027 RMK AO2 SLP250 T00670006

Время: 17:23 (22:23 UTC)


TAF: отсутствует

Метеонаблюдения и прогнозы для более 4000 аэропортов (сводки METAR и TAF).

Имеющиеся станции представлены на карте желтыми и красными точками.

Чтобы увидеть название станции, наведите на нее мышь.

Затем щелкните, чтобы увидеть метеонаблюдения и метеопрогнозы.

Управление картой: чтобы увеличить масштаб, щелкните зеленые кнопки с черным крестиком; чтобы уменьшить масштаб, щелкните зеленую кнопку с тире; для просмотра соседних карт щелкайте зеленые стрелки.


METAR-TAF: